"Pseudo-MPEC" for P11U5C7

Created 2024 May 21 20:22:07 UT using Find_Orb

Click here for an explanation of pseudo-MPECs

 
 Astrometry: 
     P11U5C7* C2024 05 03jU8'h*j)Qyb=2ec9fBYAstrometrykqAJk4q5#Yredacted;XKaKF51
     P11U5C7  C2024 05 03kDUvDM_;_J$SclickkF2\q-,bAWRDj2V;heresWf?!u;yH:b%?;pF51
     P11U5C7  C2024 05 03?MR748yforUI+S9=/.k@t0vp%OrjZ_cuU(as6explanationSMEXF51

Station data:
(F51) Pan-STARRS 1, Haleakala  (N20.707234 W156.255910)  US/Hawaii.
   Observers J. Bulger, T. Lowe, A. Schultz, M. Willman. Measurers K.
   Chambers, S. Chastel, T. de Boer, L. Denneau, J. Fairlamb, H. Flewelling,
   M. Huber, C.-C. Lin, E. Magnier, Y. Ramanjooloo, R. Wainscoat, R. Weryk.
   1.8-m Ritchey-Chrétien + CCD.

Orbital elements:  P11U5C7
   Perihelion 2024 Sep 14.72616 +/- 136 TT = 17:25:40 (JD 2460568.22616)
Epoch 2024 May  3.0 TT = JDT 2460433.5   Earth MOID: 0.3052   Ma: 0.0007
M 260.03100107 +/- 90               (J2000 ecliptic)             AutoNEOCP
n   0.74201623 +/- 0.396            Peri.  147.12905 +/- 70
a   1.20835287 +/- 0.43             Node   224.78099 +/- 29
e   0.5543693 +/- 0.229             Incl.   32.71599 +/- 37
P   1.33/485.16d           H 21.36  G  0.15   U 12.1  SR
q 0.53847903 +/- 0.514    Q 1.87822670 +/- 20.4
From 3 observations 2024 May 3 (51.1 min); mean residual 0".04
Residuals in arcseconds: 
240503 F51  .00   .02-    240503 F51  .01+  .08+    240503 F51  .01-  .05-    

Ephemerides (geocentric):
Date (UTC) HH   RA             Dec           delta  r     elong  mag " sig PA
---- --------  ------------   ------------  ------ ------ -----  --- --------
2024 05 21 20  13 47 05.445   -03 16 03.73  .54479 1.4896 144.5 22.0  41d  76
2024 05 21 21  13 46 59.175   -03 13 57.31  .54482 1.4893 144.4 22.0  41d  76
2024 05 21 22  13 46 52.911   -03 11 50.93  .54485 1.4891 144.3 22.0  41d  76
2024 05 21 23  13 46 46.651   -03 09 44.61  .54488 1.4888 144.2 22.0  41d  76
2024 05 22 00  13 46 40.398   -03 07 38.34  .54491 1.4885 144.1 22.0  41d  76
2024 05 22 01  13 46 34.149   -03 05 32.12  .54494 1.4883 144.1 22.0  41d  76
2024 05 22 02  13 46 27.906   -03 03 25.95  .54497 1.4880 144.0 22.0  41d  76
2024 05 22 03  13 46 21.669   -03 01 19.84  .54500 1.4877 143.9 22.0  41d  76
2024 05 22 04  13 46 15.437   -02 59 13.77  .54503 1.4875 143.8 22.0  41d  76
2024 05 22 05  13 46 09.210   -02 57 07.75  .54506 1.4872 143.7 22.0  41d  76
2024 05 22 06  13 46 02.989   -02 55 01.79  .54509 1.4869 143.7 22.0  41d  76
2024 05 22 07  13 45 56.773   -02 52 55.88  .54513 1.4867 143.6 22.0  41d  76
2024 05 22 08  13 45 50.563   -02 50 50.03  .54516 1.4864 143.5 22.0  41d  76
2024 05 22 09  13 45 44.358   -02 48 44.22  .54519 1.4861 143.4 22.0  41d  76
2024 05 22 10  13 45 38.159   -02 46 38.47  .54523 1.4859 143.4 22.0  41d  76
2024 05 22 11  13 45 31.966   -02 44 32.78  .54526 1.4856 143.3 22.0  41d  76
2024 05 22 12  13 45 25.778   -02 42 27.14  .54530 1.4853 143.2 22.0  41d  76
2024 05 22 13  13 45 19.595   -02 40 21.55  .54533 1.4851 143.1 22.0  41d  76
2024 05 22 14  13 45 13.419   -02 38 16.02  .54537 1.4848 143.0 22.0  41d  76
2024 05 22 15  13 45 07.247   -02 36 10.54  .54541 1.4845 143.0 22.0  42d  76
2024 05 22 16  13 45 01.082   -02 34 05.12  .54544 1.4842 142.9 22.0  42d  76
2024 05 22 17  13 44 54.921   -02 31 59.75  .54548 1.4840 142.8 22.0  42d  76
2024 05 22 18  13 44 48.767   -02 29 54.44  .54552 1.4837 142.7 22.0  42d  76
2024 05 22 19  13 44 42.618   -02 27 49.19  .54556 1.4834 142.6 22.0  42d  76
2024 05 22 20  13 44 36.475   -02 25 43.99  .54560 1.4832 142.6 22.0  42d  76
2024 05 22 21  13 44 30.337   -02 23 38.85  .54564 1.4829 142.5 22.0  42d  76
2024 05 22 22  13 44 24.206   -02 21 33.77  .54568 1.4826 142.4 22.0  42d  76
2024 05 22 23  13 44 18.079   -02 19 28.74  .54572 1.4824 142.3 22.0  42d  76
2024 05 23 00  13 44 11.959   -02 17 23.78  .54576 1.4821 142.2 22.0  42d  76
2024 05 23 01  13 44 05.844   -02 15 18.87  .54580 1.4818 142.2 22.0  42d  76
2024 05 23 02  13 43 59.735   -02 13 14.02  .54584 1.4816 142.1 22.0  42d  76
2024 05 23 03  13 43 53.631   -02 11 09.23  .54588 1.4813 142.0 22.1  42d  76
2024 05 23 04  13 43 47.534   -02 09 04.49  .54593 1.4810 141.9 22.1  42d  76
2024 05 23 05  13 43 41.442   -02 06 59.82  .54597 1.4808 141.9 22.1  42d  76
2024 05 23 06  13 43 35.355   -02 04 55.21  .54602 1.4805 141.8 22.1  42d  76
2024 05 23 07  13 43 29.275   -02 02 50.66  .54606 1.4802 141.7 22.1  42d  76
2024 05 23 08  13 43 23.200   -02 00 46.16  .54610 1.4799 141.6 22.1  42d  76
2024 05 23 09  13 43 17.131   -01 58 41.73  .54615 1.4797 141.5 22.1  42d  76
2024 05 23 10  13 43 11.068   -01 56 37.36  .54620 1.4794 141.5 22.1  42d  76
2024 05 23 11  13 43 05.011   -01 54 33.05  .54624 1.4791 141.4 22.1  42d  76
2024 05 23 12  13 42 58.959   -01 52 28.80  .54629 1.4789 141.3 22.1  42d  76
2024 05 23 13  13 42 52.913   -01 50 24.62  .54634 1.4786 141.2 22.1  42d  76
2024 05 23 14  13 42 46.873   -01 48 20.49  .54639 1.4783 141.1 22.1  42d  76
2024 05 23 15  13 42 40.839   -01 46 16.43  .54643 1.4781 141.1 22.1  42d  76
2024 05 23 16  13 42 34.811   -01 44 12.43  .54648 1.4778 141.0 22.1  42d  76
2024 05 23 17  13 42 28.788   -01 42 08.50  .54653 1.4775 140.9 22.1  42d  76
2024 05 23 18  13 42 22.772   -01 40 04.62  .54658 1.4772 140.8 22.1  42d  76
2024 05 23 19  13 42 16.761   -01 38 00.81  .54663 1.4770 140.8 22.1  42d  76